| time (UTC) | temp F | wind direction | speed knots | gust knots | rain 1hr in | rain 24hr in | rain mn in | humidity % | barometer mb |
| 20260506224612 | 57 | 171 | 1.7 | 1.7 | 0.15 | 0.00 | 0.10 | 98 | 991.3 |
| 20260506224112 | 57 | 208 | 0.9 | 1.7 | 0.14 | 0.00 | 0.09 | 98 | 991.1 |
| 20260506223612 | 57 | 270 | 1.7 | 1.7 | 0.14 | 0.00 | 0.09 | 98 | 990.9 |
| 20260506223111 | 57 | 147 | 0.9 | 2.6 | 0.12 | 0.00 | 0.07 | 98 | 991.1 |
| 20260506222611 | 57 | 255 | 1.7 | 4.3 | 0.13 | 0.00 | 0.07 | 98 | 990.9 |
| 20260506222110 | 57 | 238 | 0.0 | 1.7 | 0.14 | 0.00 | 0.07 | 98 | 990.8 |
| 20260506221610 | 57 | 27 | 2.6 | 4.3 | 0.13 | 0.00 | 0.06 | 98 | 990.4 |
| 20260506221109 | 57 | 41 | 1.7 | 5.2 | 0.13 | 0.00 | 0.06 | 98 | 990.1 |
| 20260506220609 | 57 | 59 | 5.2 | 7.0 | 0.12 | 0.00 | 0.05 | 98 | 990.4 |
| 20260506220108 | 57 | 345 | 4.3 | 6.1 | 0.07 | 0.00 | 0.00 | 98 | 990.3 |
| 20260506215608 | 57 | 29 | 0.9 | 2.6 | 0.04 | 0.00 | 0.55 | 98 | 990.5 |
| 20260506215107 | 57 | 30 | 2.6 | 4.3 | 0.03 | 0.00 | 0.54 | 98 | 990.3 |
| 20260506214607 | 57 | 25 | 2.6 | 4.3 | 0.03 | 0.00 | 0.54 | 98 | 990.2 |
| 20260506214107 | 57 | 48 | 4.3 | 7.0 | 0.03 | 0.00 | 0.54 | 98 | 989.9 |
| 20260506213606 | 57 | 61 | 5.2 | 11.3 | 0.03 | 0.00 | 0.54 | 98 | 989.7 |
| 20260506213105 | 57 | 42 | 5.2 | 7.8 | 0.03 | 0.00 | 0.53 | 98 | 990.1 |
| 20260506212604 | 57 | 25 | 2.6 | 4.3 | 0.02 | 0.00 | 0.52 | 98 | 990.3 |
| 20260506212104 | 57 | 41 | 0.9 | 1.7 | 0.03 | 0.00 | 0.52 | 98 | 990.7 |
| 20260506211603 | 57 | 65 | 0.0 | 0.0 | 0.04 | 0.00 | 0.52 | 97 | 990.7 |
| 20260506211102 | 57 | 59 | 0.0 | 2.6 | 0.05 | 0.00 | 0.52 | 97 | 990.5 |
| 20260506210601 | 57 | 23 | 0.0 | 0.9 | 0.06 | 0.00 | 0.52 | 97 | 990.5 |
| 20260506210100 | 57 | 359 | 0.0 | 0.9 | 0.06 | 0.00 | 0.51 | 97 | 990.6 |
| 20260506205600 | 58 | 334 | 0.9 | 1.7 | 0.08 | 0.00 | 0.51 | 97 | 990.7 |
| 20260506205100 | 57 | 138 | 0.0 | 0.0 | 0.10 | 0.00 | 0.51 | 97 | 990.7 |
| 20260506204600 | 57 | 194 | 1.7 | 1.7 | 0.11 | 0.00 | 0.51 | 97 | 991.0 |
| 20260506204059 | 57 | 146 | 2.6 | 2.6 | 0.15 | 0.00 | 0.51 | 97 | 990.7 |
| 20260506203559 | 57 | 126 | 0.0 | 0.0 | 0.15 | 0.00 | 0.50 | 97 | 990.7 |
| 20260506203058 | 57 | 77 | 0.0 | 2.6 | 0.16 | 0.00 | 0.50 | 97 | 990.4 |
| 20260506202558 | 57 | 81 | 2.6 | 4.3 | 0.15 | 0.00 | 0.49 | 96 | 990.5 |
| 20260506202057 | 58 | 51 | 0.9 | 2.6 | 0.14 | 0.00 | 0.48 | 96 | 990.4 |
| 20260506201556 | 58 | 25 | 1.7 | 2.6 | 0.13 | 0.00 | 0.47 | 96 | 990.2 |
| 20260506201046 | 58 | 2 | 2.6 | 2.6 | 0.13 | 0.00 | 0.46 | 96 | 990.5 |
| 20260506200545 | 58 | 275 | 1.7 | 4.3 | 0.12 | 0.00 | 0.45 | 96 | 990.8 |
| 20260506200044 | 58 | 253 | 2.6 | 2.6 | 0.10 | 0.00 | 0.43 | 96 | 990.8 |
| 20260506195534 | 58 | 44 | 0.0 | 7.0 | 0.10 | 0.00 | 0.42 | 96 | 990.7 |
| 20260506195034 | 58 | 288 | 6.1 | 7.0 | 0.09 | 0.00 | 0.40 | 96 | 991.1 |
| 20260506194523 | 58 | 264 | 1.7 | 7.0 | 0.06 | 0.00 | 0.36 | 96 | 990.7 |
| 20260506194023 | 58 | 288 | 5.2 | 7.8 | 0.07 | 0.00 | 0.35 | 96 | 990.6 |
| 20260506193513 | 58 | 336 | 2.6 | 5.2 | 0.09 | 0.00 | 0.34 | 96 | 990.1 |
| 20260506193013 | 58 | 18 | 3.5 | 5.2 | 0.13 | 0.00 | 0.34 | 96 | 990.1 |
| 20260506192513 | 58 | 286 | 5.2 | 6.1 | 0.13 | 0.00 | 0.34 | 95 | 990.3 |
| 20260506192012 | 58 | 5 | 1.7 | 2.6 | 0.15 | 0.00 | 0.34 | 95 | 990.0 |
| 20260506191511 | 58 | 49 | 0.0 | 2.6 | 0.17 | 0.00 | 0.33 | 95 | 989.9 |
| 20260506191010 | 58 | 33 | 1.7 | 1.7 | 0.17 | 0.00 | 0.33 | 94 | 990.0 |
| 20260506190509 | 58 | 78 | 0.9 | 1.7 | 0.20 | 0.00 | 0.33 | 94 | 990.5 |
| 20260506190009 | 58 | 98 | 0.9 | 1.7 | 0.20 | 0.00 | 0.32 | 94 | 990.5 |
| 20260506185509 | 58 | 329 | 0.9 | 1.7 | 0.19 | 0.00 | 0.31 | 94 | 990.5 |
| 20260506185008 | 58 | 254 | 0.9 | 1.7 | 0.20 | 0.00 | 0.30 | 93 | 990.4 |
| 20260506184507 | 58 | 42 | 0.0 | 1.7 | 0.18 | 0.00 | 0.28 | 93 | 990.4 |
| 20260506184006 | 58 | 96 | 0.0 | 0.9 | 0.15 | 0.00 | 0.25 | 92 | 990.2 |
| 20260506183505 | 58 | 145 | 4.3 | 5.2 | 0.13 | 0.00 | 0.23 | 91 | 990.5 |
| 20260506183005 | 59 | 152 | 5.2 | 6.1 | 0.12 | 0.00 | 0.21 | 90 | 990.3 |
| 20260506182503 | 59 | 141 | 6.1 | 7.8 | 0.10 | 0.00 | 0.19 | 89 | 990.6 |
| 20260506182003 | 60 | 145 | 7.0 | 8.7 | 0.09 | 0.00 | 0.18 | 87 | 990.5 |
| 20260506181502 | 60 | 204 | 2.6 | 4.3 | 0.07 | 0.00 | 0.16 | 84 | 990.1 |
| 20260506181001 | 60 | 222 | 1.7 | 5.2 | 0.05 | 0.00 | 0.14 | 85 | 989.6 |
| 20260506180501 | 60 | 203 | 2.6 | 5.2 | 0.04 | 0.00 | 0.13 | 86 | 989.7 |
| 20260506180001 | 60 | 166 | 3.5 | 5.2 | 0.05 | 0.00 | 0.12 | 85 | 989.5 |
| 20260506175501 | 60 | 212 | 2.6 | 5.2 | 0.06 | 0.00 | 0.11 | 84 | 989.6 |
| 20260506175000 | 60 | 135 | 0.9 | 0.9 | 0.07 | 0.00 | 0.10 | 87 | 989.8 |
| 20260506174500 | 60 | 126 | 0.0 | 0.9 | 0.09 | 0.00 | 0.10 | 86 | 989.5 |
| 20260506173959 | 60 | 78 | 0.9 | 1.7 | 0.10 | 0.00 | 0.10 | 86 | 989.4 |
| 20260506173448 | 60 | 117 | 4.3 | 4.3 | 0.10 | 0.00 | 0.10 | 83 | 989.2 |
| 20260506172948 | 61 | 148 | 2.6 | 2.6 | 0.09 | 0.00 | 0.09 | 84 | 989.2 |
| 20260506172437 | 61 | 123 | 5.2 | 6.1 | 0.09 | 0.00 | 0.09 | 83 | 988.9 |
| 20260506171936 | 61 | 132 | 4.3 | 5.2 | 0.09 | 0.00 | 0.09 | 82 | 988.8 |
| 20260506171435 | 61 | 113 | 3.5 | 4.3 | 0.09 | 0.00 | 0.09 | 80 | 988.7 |
| 20260506170924 | 61 | 107 | 4.3 | 5.2 | 0.09 | 0.00 | 0.09 | 81 | 988.6 |
| 20260506170424 | 61 | 74 | 0.0 | 0.9 | 0.08 | 0.00 | 0.08 | 81 | 988.8 |
| 20260506165913 | 62 | 211 | 2.6 | 5.2 | 0.07 | 0.00 | 0.07 | 77 | 988.9 |
| 20260506165412 | 62 | 132 | 4.3 | 7.0 | 0.04 | 0.00 | 0.04 | 76 | 989.3 |
| 20260506164901 | 64 | 180 | 7.0 | 14.8 | 0.03 | 0.00 | 0.03 | 71 | 989.3 |
| 20260506164401 | 68 | 145 | 14.8 | 22.6 | 0.00 | 0.00 | 0.00 | 61 | 989.3 |
| 20260506163900 | 72 | 221 | 9.6 | 13.9 | 0.00 | 0.00 | 0.00 | 46 | 989.1 |
| 20260506163400 | 72 | 203 | 2.6 | 4.3 | 0.00 | 0.00 | 0.00 | 43 | 988.8 |
| 20260506162900 | 72 | 253 | 5.2 | 7.0 | 0.00 | 0.00 | 0.00 | 42 | 988.6 |
| 20260506162400 | 72 | 268 | 4.3 | 6.1 | 0.00 | 0.00 | 0.00 | 42 | 988.8 |
| 20260506161900 | 73 | 248 | 2.6 | 7.0 | 0.00 | 0.00 | 0.00 | 42 | 988.7 |
| 20260506161358 | 73 | 225 | 4.3 | 5.2 | 0.00 | 0.00 | 0.00 | 41 | 988.6 |
| 20260506160858 | 73 | 178 | 1.7 | 6.1 | 0.00 | 0.00 | 0.00 | 42 | 988.7 |
| 20260506160357 | 73 | 255 | 3.5 | 7.0 | 0.00 | 0.00 | 0.00 | 42 | 988.6 |
| 20260506155857 | 73 | 153 | 5.2 | 7.8 | 0.00 | 0.00 | 0.00 | 42 | 988.8 |
| 20260506155356 | 73 | 264 | 6.1 | 8.7 | 0.00 | 0.00 | 0.00 | 42 | 988.7 |
| 20260506154855 | 73 | 219 | 3.5 | 5.2 | 0.00 | 0.00 | 0.00 | 42 | 988.7 |
| 20260506154354 | 73 | 265 | 5.2 | 7.0 | 0.00 | 0.00 | 0.00 | 41 | 988.8 |
| 20260506153854 | 73 | 243 | 6.1 | 8.7 | 0.00 | 0.00 | 0.00 | 41 | 988.6 |
| 20260506153354 | 74 | 203 | 3.5 | 7.8 | 0.00 | 0.00 | 0.00 | 41 | 988.8 |
| 20260506152853 | 74 | 124 | 2.6 | 6.1 | 0.00 | 0.00 | 0.00 | 40 | 988.7 |
| 20260506152352 | 74 | 246 | 5.2 | 7.0 | 0.00 | 0.00 | 0.00 | 40 | 988.9 |
| 20260506151851 | 74 | 276 | 5.2 | 6.1 | 0.00 | 0.00 | 0.00 | 40 | 988.8 |
| 20260506151350 | 74 | 185 | 2.6 | 5.2 | 0.00 | 0.00 | 0.00 | 40 | 988.8 |
| 20260506150849 | 74 | 200 | 4.3 | 7.0 | 0.00 | 0.00 | 0.00 | 40 | 988.9 |
| 20260506150350 | 74 | 258 | 6.1 | 9.6 | 0.00 | 0.00 | 0.00 | 39 | 989.0 |
| 20260506145848 | 74 | 294 | 6.1 | 9.6 | 0.00 | 0.00 | 0.00 | 40 | 989.0 |
| 20260506145348 | 74 | 215 | 5.2 | 8.7 | 0.00 | 0.00 | 0.00 | 40 | 988.9 |
| 20260506144848 | 74 | 213 | 3.5 | 11.3 | 0.00 | 0.00 | 0.00 | 40 | 989.2 |
| 20260506143847 | 74 | 228 | 7.0 | 9.6 | 0.00 | 0.00 | 0.00 | 38 | 989.2 |
| 20260506143346 | 74 | 199 | 3.5 | 7.8 | 0.00 | 0.00 | 0.00 | 39 | 989.1 |
| 20260506142846 | 74 | 229 | 5.2 | 7.8 | 0.00 | 0.00 | 0.00 | 41 | 989.2 |
| 20260506142346 | 73 | 234 | 2.6 | 7.0 | 0.00 | 0.00 | 0.00 | 42 | 989.4 |
| 20260506141845 | 73 | 294 | 0.9 | 7.0 | 0.00 | 0.00 | 0.00 | 43 | 989.5 |
| 20260506141345 | 72 | 250 | 11.3 | 13.0 | 0.00 | 0.00 | 0.00 | 43 | 989.5 |
| 20260506140844 | 72 | 237 | 9.6 | 11.3 | 0.00 | 0.00 | 0.00 | 43 | 989.5 |
| 20260506140343 | 72 | 224 | 7.0 | 8.7 | 0.00 | 0.00 | 0.00 | 44 | 989.5 |
| 20260506135842 | 72 | 295 | 2.6 | 6.1 | 0.00 | 0.00 | 0.00 | 44 | 989.7 |
| 20260506135341 | 73 | 232 | 5.2 | 12.2 | 0.00 | 0.00 | 0.00 | 44 | 989.5 |
| 20260506134840 | 73 | 281 | 7.8 | 9.6 | 0.00 | 0.00 | 0.00 | 43 | 989.6 |
| 20260506134340 | 72 | 146 | 2.6 | 11.3 | 0.00 | 0.00 | 0.00 | 44 | 989.5 |
| 20260506133840 | 72 | 144 | 5.2 | 9.6 | 0.00 | 0.00 | 0.00 | 46 | 989.7 |
| 20260506133339 | 72 | 225 | 7.0 | 13.0 | 0.00 | 0.00 | 0.00 | 45 | 989.7 |
| 20260506132838 | 72 | 232 | 11.3 | 13.9 | 0.00 | 0.00 | 0.00 | 46 | 989.6 |
| 20260506132337 | 73 | 237 | 7.0 | 15.6 | 0.00 | 0.00 | 0.00 | 45 | 989.5 |
| 20260506131836 | 72 | 60 | 3.5 | 9.6 | 0.00 | 0.00 | 0.00 | 46 | 989.6 |
| 20260506131336 | 72 | 232 | 9.6 | 12.2 | 0.00 | 0.00 | 0.00 | 46 | 989.8 |
| 20260506130835 | 73 | 208 | 7.0 | 20.0 | 0.00 | 0.00 | 0.00 | 45 | 989.7 |
| 20260506130334 | 73 | 228 | 7.8 | 13.0 | 0.00 | 0.00 | 0.00 | 45 | 989.7 |
| 20260506125834 | 72 | 299 | 4.3 | 9.6 | 0.00 | 0.00 | 0.00 | 47 | 989.6 |
| 20260506125333 | 71 | 207 | 7.8 | 12.2 | 0.00 | 0.00 | 0.00 | 47 | 989.7 |
| 20260506124822 | 71 | 232 | 8.7 | 15.6 | 0.00 | 0.00 | 0.00 | 48 | 989.8 |
| 20260506124321 | 70 | 146 | 6.1 | 13.0 | 0.00 | 0.00 | 0.00 | 49 | 989.9 |
| 20260506123810 | 71 | 173 | 5.2 | 7.8 | 0.00 | 0.00 | 0.00 | 49 | 989.9 |
| 20260506123310 | 71 | 204 | 3.5 | 9.6 | 0.00 | 0.00 | 0.00 | 48 | 989.9 |
| 20260506122800 | 71 | 17 | 0.9 | 8.7 | 0.00 | 0.00 | 0.00 | 48 | 989.8 |
| 20260506122300 | 70 | 98 | 4.3 | 12.2 | 0.00 | 0.00 | 0.00 | 50 | 989.9 |
| 20260506121759 | 70 | 176 | 7.0 | 19.1 | 0.00 | 0.00 | 0.00 | 49 | 989.9 |
| 20260506121249 | 70 | 224 | 3.5 | 13.9 | 0.00 | 0.00 | 0.00 | 49 | 989.7 |
| 20260506120748 | 71 | 295 | 4.3 | 9.6 | 0.00 | 0.00 | 0.00 | 49 | 989.9 |
| 20260506120238 | 70 | 258 | 1.7 | 7.8 | 0.00 | 0.00 | 0.00 | 51 | 989.8 |
| 20260506115737 | 69 | 219 | 6.1 | 13.0 | 0.00 | 0.00 | 0.00 | 51 | 990.0 |
| 20260506115236 | 69 | 161 | 2.6 | 9.6 | 0.00 | 0.00 | 0.00 | 51 | 989.8 |
| 20260506114735 | 69 | 257 | 4.3 | 17.4 | 0.00 | 0.00 | 0.00 | 51 | 989.8 |
| 20260506114224 | 69 | 208 | 12.2 | 14.8 | 0.00 | 0.00 | 0.00 | 52 | 989.8 |
| 20260506113724 | 69 | 219 | 9.6 | 13.9 | 0.00 | 0.00 | 0.00 | 52 | 989.8 |
| 20260506113223 | 69 | 306 | 2.6 | 9.6 | 0.00 | 0.00 | 0.00 | 53 | 989.7 |
| 20260506112721 | 69 | 165 | 8.7 | 13.9 | 0.00 | 0.00 | 0.00 | 52 | 990.0 |
| 20260506112221 | 69 | 237 | 3.5 | 7.8 | 0.00 | 0.00 | 0.00 | 53 | 989.9 |
| 20260506111720 | 69 | 251 | 4.3 | 13.0 | 0.00 | 0.00 | 0.00 | 52 | 989.9 |
| 20260506111219 | 69 | 140 | 7.8 | 13.0 | 0.00 | 0.00 | 0.00 | 52 | 990.1 |
| 20260506110718 | 68 | 212 | 6.1 | 12.2 | 0.00 | 0.00 | 0.00 | 53 | 989.9 |
| 20260506110207 | 68 | 138 | 2.6 | 7.8 | 0.00 | 0.00 | 0.00 | 54 | 989.8 |
| 20260506105706 | 68 | 215 | 13.9 | 14.8 | 0.00 | 0.00 | 0.00 | 53 | 989.8 |
| 20260506105205 | 68 | 201 | 7.8 | 13.9 | 0.00 | 0.00 | 0.00 | 53 | 989.9 |
| 20260506104705 | 68 | 138 | 3.5 | 8.7 | 0.00 | 0.00 | 0.00 | 53 | 989.8 |
| 20260506104154 | 68 | 264 | 2.6 | 11.3 | 0.00 | 0.00 | 0.00 | 54 | 989.8 |
| 20260506103654 | 68 | 236 | 7.8 | 13.0 | 0.00 | 0.00 | 0.00 | 54 | 989.9 |
| 20260506103153 | 68 | 220 | 13.9 | 15.6 | 0.00 | 0.00 | 0.00 | 53 | 989.9 |
| 20260506102652 | 68 | 216 | 6.1 | 12.2 | 0.00 | 0.00 | 0.00 | 53 | 989.9 |
| 20260506102151 | 69 | 201 | 7.8 | 11.3 | 0.00 | 0.00 | 0.00 | 53 | 989.8 |
| 20260506101641 | 68 | 181 | 7.8 | 13.0 | 0.00 | 0.00 | 0.00 | 53 | 989.9 |
| 20260506101140 | 68 | 258 | 5.2 | 13.9 | 0.00 | 0.00 | 0.00 | 54 | 990.1 |
| 20260506100640 | 68 | 148 | 7.0 | 13.0 | 0.00 | 0.00 | 0.00 | 53 | 990.1 |
| 20260506100139 | 69 | 232 | 11.3 | 13.9 | 0.00 | 0.00 | 0.00 | 53 | 989.9 |
| 20260506095638 | 69 | 210 | 11.3 | 12.2 | 0.00 | 0.00 | 0.00 | 53 | 989.6 |
| 20260506095127 | 68 | 141 | 7.8 | 9.6 | 0.00 | 0.00 | 0.00 | 54 | 989.8 |
| 20260506094626 | 68 | 152 | 3.5 | 15.6 | 0.00 | 0.00 | 0.00 | 55 | 989.8 |
| 20260506094115 | 68 | 174 | 4.3 | 12.2 | 0.00 | 0.00 | 0.00 | 56 | 989.6 |
| 20260506093616 | 67 | 172 | 2.6 | 12.2 | 0.00 | 0.00 | 0.00 | 58 | 989.7 |
| 20260506093105 | 67 | 126 | 2.6 | 8.7 | 0.00 | 0.00 | 0.00 | 58 | 989.7 |
| 20260506092603 | 67 | 211 | 7.8 | 12.2 | 0.00 | 0.00 | 0.00 | 58 | 989.7 |
| 20260506092103 | 66 | 198 | 7.8 | 12.2 | 0.00 | 0.00 | 0.00 | 60 | 989.7 |
| 20260506091602 | 66 | 230 | 9.6 | 13.9 | 0.00 | 0.00 | 0.00 | 60 | 989.8 |
| 20260506091051 | 66 | 198 | 7.8 | 14.8 | 0.00 | 0.00 | 0.00 | 60 | 989.7 |
| 20260506090550 | 66 | 189 | 6.1 | 12.2 | 0.00 | 0.00 | 0.00 | 60 | 989.6 |
| 20260506090040 | 66 | 225 | 12.2 | 17.4 | 0.00 | 0.00 | 0.00 | 59 | 989.6 |
| 20260506085538 | 66 | 236 | 7.8 | 11.3 | 0.00 | 0.00 | 0.00 | 61 | 989.7 |
| 20260506085028 | 65 | 232 | 3.5 | 8.7 | 0.00 | 0.00 | 0.00 | 64 | 989.7 |
| 20260506084527 | 65 | 268 | 5.2 | 7.8 | 0.00 | 0.00 | 0.00 | 64 | 989.7 |
| 20260506084017 | 65 | 319 | 6.1 | 7.0 | 0.00 | 0.00 | 0.00 | 63 | 989.7 |
| 20260506083516 | 65 | 234 | 4.3 | 7.8 | 0.00 | 0.00 | 0.00 | 64 | 989.7 |
| 20260506083015 | 66 | 258 | 4.3 | 8.7 | 0.00 | 0.00 | 0.00 | 65 | 989.7 |
| 20260506082513 | 66 | 247 | 5.2 | 8.7 | 0.00 | 0.00 | 0.00 | 64 | 989.6 |
| 20260506082013 | 65 | 240 | 2.6 | 7.8 | 0.00 | 0.00 | 0.00 | 66 | 989.6 |
| 20260506081512 | 65 | 238 | 7.8 | 8.7 | 0.00 | 0.00 | 0.00 | 66 | 989.5 |
| 20260506081011 | 65 | 197 | 7.8 | 11.3 | 0.00 | 0.00 | 0.00 | 66 | 989.5 |
| 20260506080510 | 65 | 35 | 3.5 | 7.8 | 0.00 | 0.00 | 0.00 | 67 | 989.7 |
| 20260506073507 | 63 | 136 | 3.5 | 5.2 | 0.00 | 0.00 | 0.00 | 69 | 989.5 |
| 20260506073007 | 64 | 162 | 2.6 | 6.1 | 0.00 | 0.00 | 0.00 | 69 | 989.5 |
| 20260506072506 | 63 | 198 | 1.7 | 6.1 | 0.00 | 0.00 | 0.00 | 70 | 989.4 |
| 20260506072005 | 62 | 262 | 1.7 | 4.3 | 0.00 | 0.00 | 0.00 | 71 | 989.2 |
| 20260506071505 | 63 | 221 | 5.2 | 7.8 | 0.00 | 0.00 | 0.00 | 70 | 989.3 |
| 20260506071004 | 63 | 223 | 4.3 | 6.1 | 0.00 | 0.00 | 0.00 | 70 | 989.2 |
| 20260506070504 | 62 | 269 | 2.6 | 4.3 | 0.00 | 0.00 | 0.00 | 71 | 989.4 |
| 20260506062459 | 59 | 59 | 0.9 | 1.7 | 0.00 | 0.00 | 0.00 | 77 | 989.0 |
| 20260506061958 | 59 | 292 | 0.0 | 2.6 | 0.00 | 0.00 | 0.00 | 76 | 989.1 |
| 20260506061458 | 59 | 298 | 0.0 | 4.3 | 0.00 | 0.00 | 0.00 | 75 | 989.3 |
| 20260506060957 | 59 | 126 | 0.0 | 2.6 | 0.00 | 0.00 | 0.00 | 76 | 989.2 |
| 20260506060456 | 58 | 95 | 0.0 | 0.9 | 0.00 | 0.00 | 0.00 | 79 | 989.2 |
| 20260506050949 | 56 | 225 | 2.6 | 5.2 | 0.00 | 0.00 | 0.00 | 82 | 988.9 |
| 20260506050449 | 55 | 153 | 0.9 | 2.6 | 0.00 | 0.00 | 0.00 | 83 | 989.0 |
| 20260506044948 | 55 | 136 | 1.7 | 1.7 | 0.00 | 0.00 | 0.00 | 85 | 988.8 |
| 20260506044447 | 55 | 222 | 0.9 | 5.2 | 0.00 | 0.00 | 0.00 | 85 | 988.6 |
| 20260506043947 | 55 | 229 | 3.5 | 4.3 | 0.00 | 0.00 | 0.00 | 85 | 988.8 |
| 20260506043446 | 55 | 181 | 1.7 | 2.6 | 0.00 | 0.00 | 0.00 | 85 | 988.8 |
| 20260506042946 | 55 | 185 | 0.9 | 1.7 | 0.00 | 0.00 | 0.00 | 84 | 988.5 |
| 20260506042446 | 54 | 185 | 0.0 | 0.9 | 0.00 | 0.00 | 0.00 | 85 | 988.4 |
| 20260506041944 | 54 | 141 | 0.0 | 1.7 | 0.00 | 0.00 | 0.00 | 85 | 988.7 |
| 20260506041444 | 54 | 269 | 1.7 | 2.6 | 0.00 | 0.00 | 0.00 | 85 | 988.6 |
| 20260506040944 | 54 | 188 | 0.9 | 4.3 | 0.00 | 0.00 | 0.00 | 86 | 988.5 |
| 20260506040444 | 54 | 193 | 2.6 | 5.2 | 0.00 | 0.00 | 0.00 | 86 | 988.4 |
| 20260506035943 | 54 | 223 | 4.3 | 7.0 | 0.00 | 0.00 | 0.00 | 86 | 988.5 |
| 20260506035442 | 54 | 207 | 2.6 | 4.3 | 0.00 | 0.00 | 0.00 | 86 | 988.5 |
| 20260506034942 | 54 | 212 | 2.6 | 4.3 | 0.00 | 0.00 | 0.00 | 86 | 988.4 |
| 20260506034441 | 54 | 210 | 3.5 | 4.3 | 0.00 | 0.00 | 0.00 | 84 | 988.2 |
| 20260506033941 | 54 | 141 | 0.0 | 0.0 | 0.00 | 0.00 | 0.00 | 86 | 987.9 |
| 20260506033440 | 53 | 125 | 0.0 | 1.7 | 0.00 | 0.00 | 0.00 | 85 | 987.9 |
| 20260506032939 | 54 | 95 | 0.9 | 0.9 | 0.00 | 0.00 | 0.00 | 84 | 987.8 |
| 20260506032439 | 54 | 200 | 0.0 | 0.0 | 0.00 | 0.00 | 0.00 | 83 | 987.9 |
| 20260506031939 | 54 | 200 | 0.0 | 0.9 | 0.00 | 0.00 | 0.00 | 83 | 987.8 |
| 20260506031438 | 55 | 200 | 0.0 | 0.9 | 0.00 | 0.00 | 0.00 | 83 | 987.9 |
| 20260506030937 | 55 | 321 | 0.0 | 0.0 | 0.00 | 0.00 | 0.00 | 83 | 987.9 |
| 20260506030436 | 55 | 328 | 0.0 | 0.0 | 0.00 | 0.00 | 0.00 | 83 | 987.9 |
| 20260506025936 | 55 | 342 | 0.0 | 0.0 | 0.00 | 0.00 | 0.00 | 83 | 987.9 |
| 20260506025435 | 54 | 292 | 0.0 | 1.7 | 0.00 | 0.00 | 0.00 | 83 | 988.2 |
| 20260506024935 | 55 | 278 | 0.9 | 1.7 | 0.00 | 0.00 | 0.00 | 82 | 988.4 |
| 20260506024434 | 55 | 192 | 0.9 | 1.7 | 0.00 | 0.00 | 0.00 | 81 | 988.4 |
| 20260506023933 | 55 | 188 | 2.6 | 4.3 | 0.00 | 0.00 | 0.00 | 80 | 988.5 |
| 20260506023432 | 55 | 253 | 2.6 | 7.8 | 0.00 | 0.00 | 0.00 | 80 | 988.7 |
| 20260506022931 | 55 | 236 | 4.3 | 6.1 | 0.00 | 0.00 | 0.00 | 79 | 988.7 |
| 20260506022420 | 56 | 273 | 2.6 | 4.3 | 0.00 | 0.00 | 0.00 | 77 | 988.7 |
| 20260506021920 | 56 | 251 | 0.9 | 1.7 | 0.00 | 0.00 | 0.00 | 77 | 988.6 |
| 20260506021419 | 56 | 302 | 0.9 | 2.6 | 0.00 | 0.00 | 0.00 | 77 | 988.4 |
| 20260506020908 | 56 | 223 | 0.9 | 1.7 | 0.00 | 0.00 | 0.00 | 77 | 988.8 |
| 20260506020408 | 56 | 306 | 1.7 | 2.6 | 0.00 | 0.00 | 0.00 | 76 | 988.6 |
| 20260506015906 | 56 | 297 | 2.6 | 2.6 | 0.00 | 0.00 | 0.00 | 76 | 988.9 |
| 20260506015356 | 57 | 141 | 0.0 | 0.9 | 0.00 | 0.00 | 0.00 | 76 | 988.7 |
| 20260506014855 | 57 | 321 | 0.9 | 1.7 | 0.00 | 0.00 | 0.00 | 75 | 988.6 |
| 20260506014354 | 57 | 310 | 2.6 | 2.6 | 0.00 | 0.00 | 0.00 | 75 | 988.6 |
| 20260506013854 | 57 | 288 | 2.6 | 2.6 | 0.00 | 0.00 | 0.00 | 75 | 988.6 |
| 20260506013343 | 57 | 286 | 2.6 | 2.6 | 0.00 | 0.00 | 0.00 | 75 | 988.4 |
| 20260506012842 | 57 | 0 | 1.7 | 5.2 | 0.00 | 0.00 | 0.00 | 75 | 988.7 |
| 20260506012341 | 57 | 301 | 2.6 | 6.1 | 0.00 | 0.00 | 0.00 | 75 | 988.6 |
| 20260506011840 | 57 | 289 | 1.7 | 4.3 | 0.00 | 0.00 | 0.00 | 75 | 988.7 |
| 20260506011329 | 57 | 314 | 2.6 | 4.3 | 0.00 | 0.00 | 0.00 | 74 | 988.6 |
| 20260506010829 | 57 | 309 | 0.9 | 4.3 | 0.00 | 0.00 | 0.00 | 74 | 988.7 |
| 20260506010329 | 57 | 328 | 1.7 | 1.7 | 0.00 | 0.00 | 0.00 | 74 | 988.6 |
| 20260506005828 | 57 | 298 | 1.7 | 2.6 | 0.00 | 0.00 | 0.00 | 73 | 988.5 |
| 20260506005317 | 57 | 231 | 0.9 | 2.6 | 0.00 | 0.00 | 0.00 | 74 | 988.7 |
| 20260506004816 | 57 | 335 | 1.7 | 2.6 | 0.00 | 0.00 | 0.00 | 74 | 988.6 |
| 20260506004315 | 57 | 293 | 2.6 | 4.3 | 0.00 | 0.00 | 0.00 | 74 | 988.7 |
| 20260506003804 | 57 | 287 | 2.6 | 4.3 | 0.00 | 0.00 | 0.00 | 74 | 988.5 |
| 20260506003303 | 57 | 299 | 3.5 | 4.3 | 0.00 | 0.00 | 0.00 | 74 | 988.6 |
| 20260506002803 | 57 | 284 | 2.6 | 4.3 | 0.00 | 0.00 | 0.00 | 74 | 988.5 |
| 20260506002305 | 57 | 323 | 4.3 | 6.1 | 0.00 | 0.00 | 0.00 | 73 | 988.3 |
| 20260506001801 | 58 | 299 | 4.3 | 7.0 | 0.00 | 0.00 | 0.00 | 73 | 988.3 |
| 20260506001301 | 58 | 304 | 4.3 | 6.1 | 0.00 | 0.00 | 0.00 | 72 | 988.4 |
| 20260506000800 | 58 | 287 | 3.5 | 4.3 | 0.00 | 0.00 | 0.00 | 71 | 988.3 |
| 20260506000302 | 58 | 332 | 2.6 | 4.3 | 0.00 | 0.00 | 0.00 | 71 | 988.5 |
| 20260505235759 | 58 | 329 | 1.7 | 1.7 | 0.00 | 0.00 | 0.00 | 71 | 988.5 |
| 20260505235259 | 58 | 325 | 2.6 | 2.6 | 0.00 | 0.00 | 0.00 | 71 | 988.5 |
| 20260505234758 | 58 | 30 | 1.7 | 2.6 | 0.00 | 0.00 | 0.00 | 71 | 988.5 |
| 20260505234258 | 58 | 307 | 3.5 | 4.3 | 0.00 | 0.00 | 0.00 | 71 | 988.6 |
| 20260505233757 | 58 | 302 | 3.5 | 5.2 | 0.00 | 0.00 | 0.00 | 72 | 988.5 |
| 20260505233257 | 58 | 314 | 4.3 | 6.1 | 0.00 | 0.00 | 0.00 | 71 | 988.5 |
| 20260505232756 | 58 | 341 | 1.7 | 5.2 | 0.00 | 0.00 | 0.00 | 71 | 988.6 |
| 20260505232256 | 58 | 311 | 2.6 | 7.0 | 0.00 | 0.00 | 0.00 | 71 | 988.6 |
| 20260505231755 | 58 | 336 | 3.5 | 5.2 | 0.00 | 0.00 | 0.00 | 70 | 988.5 |
| 20260505231255 | 58 | 325 | 3.5 | 5.2 | 0.00 | 0.00 | 0.00 | 70 | 988.5 |
| 20260505230755 | 59 | 354 | 5.2 | 6.1 | 0.00 | 0.00 | 0.00 | 70 | 988.5 |
| 20260505230254 | 59 | 10 | 3.5 | 5.2 | 0.00 | 0.00 | 0.00 | 70 | 988.6 |
| 20260505225753 | 59 | 20 | 4.3 | 7.0 | 0.00 | 0.00 | 0.00 | 69 | 988.7 |
| 20260505225253 | 59 | 330 | 4.3 | 7.0 | 0.00 | 0.00 | 0.00 | 69 | 988.7 |